When you browse on this site, cookies collect data to enhance your experience and personalize the content and advertising you see.
Visit our Privacy Policy to learn more. By continuing to use the site, you agree to this use of cookies and data.
  • Em Portugal
  • Lista de países
  • Para 7 dias
  • Temperatura da água
  • Mapas de satélite
  • Mapa do tempo
  • Widgets de tempo
  • user-avatar
    Iniciar Sessão

    Previsão horária em Bezymyannoe

    Hoje, 20 Julho, Sábado

    Tempo Temperatura Precipitação Vento Pressão Humidade
    00:00 +20°C° 0 mm 2 m/s 753 mmHg 70%
    01:00 +19°C° 0 mm 2 m/s 753 mmHg 71%
    02:00 +19°C° 0 mm 2 m/s 753 mmHg 72%
    03:00 +18°C° 0 mm 2 m/s 753 mmHg 73%
    04:00 +19°C° 0 mm 2 m/s 753 mmHg 72%
    05:00 +19°C° 0 mm 2 m/s 754 mmHg 71%
    06:00 +20°C° 0 mm 2 m/s 754 mmHg 70%
    07:00 +21°C° 0 mm 3 m/s 754 mmHg 66%
    08:00 +24°C° 0 mm 3 m/s 754 mmHg 61%
    09:00 +25°C° 0 mm 4 m/s 754 mmHg 56%
    10:00 +26°C° 0 mm 4 m/s 755 mmHg 53%
    11:00 +27°C° 0 mm 4 m/s 755 mmHg 51%
    12:00 +28°C° 0 mm 5 m/s 755 mmHg 48%
    13:00 +28°C° 0 mm 5 m/s 755 mmHg 47%
    14:00 +28°C° 0 mm 5 m/s 755 mmHg 46%
    15:00 +29°C° 0 mm 5 m/s 755 mmHg 44%
    16:00 +28°C° 0 mm 4 m/s 755 mmHg 47%
    17:00 +28°C° 0 mm 4 m/s 755 mmHg 49%
    18:00 +27°C° 0 mm 3 m/s 755 mmHg 51%
    19:00 +25°C° 0 mm 3 m/s 755 mmHg 55%
    20:00 +24°C° 0 mm 3 m/s 755 mmHg 59%
    21:00 +21°C° 0 mm 2 m/s 756 mmHg 63%
    22:00 +21°C° 0 mm 2 m/s 756 mmHg 65%
    23:00 +20°C° 0 mm 2 m/s 756 mmHg 66%

    Amanhã, 21 Julho, Domingo

    Tempo Temperatura Precipitação Vento Pressão Humidade
    00:00 +20°C° 0 mm 2 m/s 756 mmHg 68%
    01:00 +19°C° 0 mm 2 m/s 756 mmHg 70%
    02:00 +19°C° 0 mm 2 m/s 756 mmHg 72%
    03:00 +18°C° 0 mm 2 m/s 756 mmHg 75%
    04:00 +19°C° 0 mm 2 m/s 756 mmHg 74%
    05:00 +20°C° 0 mm 3 m/s 756 mmHg 73%
    06:00 +20°C° 0 mm 3 m/s 756 mmHg 72%
    07:00 +22°C° 0 mm 3 m/s 756 mmHg 66%
    08:00 +23°C° 0 mm 4 m/s 756 mmHg 61%
    09:00 +26°C° 0 mm 4 m/s 756 mmHg 55%
    10:00 +27°C° 0 mm 4 m/s 756 mmHg 52%
    11:00 +27°C° 0 mm 5 m/s 756 mmHg 48%
    12:00 +28°C° 0 mm 5 m/s 756 mmHg 45%
    13:00 +29°C° 0 mm 5 m/s 756 mmHg 44%
    14:00 +29°C° 0 mm 5 m/s 755 mmHg 44%
    15:00 +29°C° 0 mm 5 m/s 755 mmHg 43%
    16:00 +28°C° 0 mm 5 m/s 755 mmHg 45%
    17:00 +28°C° 0 mm 4 m/s 755 mmHg 47%
    18:00 +27°C° 0 mm 4 m/s 755 mmHg 49%
    19:00 +26°C° 0 mm 3 m/s 755 mmHg 53%
    20:00 +24°C° 0 mm 3 m/s 755 mmHg 57%
    21:00 +21°C° 0 mm 2 m/s 755 mmHg 61%
    22:00 +21°C° 0 mm 2 m/s 755 mmHg 62%
    23:00 +20°C° 0 mm 2 m/s 755 mmHg 63%

    Depois de amanhã, 22 Julho, Segunda-feira

    Tempo Temperatura Precipitação Vento Pressão Humidade
    00:00 +20°C° 0 mm 2 m/s 755 mmHg 65%
    01:00 +19°C° 0 mm 2 m/s 755 mmHg 68%
    02:00 +19°C° 0 mm 2 m/s 755 mmHg 71%
    03:00 +18°C° 0 mm 2 m/s 754 mmHg 75%
    04:00 +19°C° 0 mm 2 m/s 755 mmHg 72%
    05:00 +19°C° 0 mm 3 m/s 755 mmHg 70%
    06:00 +20°C° 0 mm 3 m/s 755 mmHg 67%
    07:00 +21°C° 0 mm 3 m/s 755 mmHg 61%
    08:00 +24°C° 0 mm 3 m/s 754 mmHg 56%
    09:00 +26°C° 0 mm 3 m/s 754 mmHg 50%
    10:00 +27°C° 0 mm 4 m/s 754 mmHg 48%
    11:00 +28°C° 0 mm 4 m/s 754 mmHg 47%
    12:00 +28°C° 0 mm 5 m/s 754 mmHg 45%
    13:00 +28°C° 0 mm 5 m/s 753 mmHg 45%
    14:00 +29°C° 0 mm 5 m/s 753 mmHg 45%
    15:00 +29°C° 0 mm 5 m/s 753 mmHg 46%
    16:00 +28°C° 0 mm 5 m/s 753 mmHg 47%
    17:00 +28°C° 0 mm 4 m/s 753 mmHg 49%
    18:00 +27°C° 0 mm 4 m/s 753 mmHg 51%
    19:00 +26°C° 0 mm 3 m/s 753 mmHg 56%
    20:00 +24°C° 0 mm 2 m/s 753 mmHg 61%
    21:00 +22°C° 0 mm 1 m/s 753 mmHg 66%
    22:00 +22°C° 0 mm 1 m/s 753 mmHg 68%
    23:00 +21°C° 0 mm 1 m/s 753 mmHg 70%

    23 Julho, Terça-feira

    Tempo Temperatura Precipitação Vento Pressão Humidade
    00:00 +21°C° 0 mm 1 m/s 753 mmHg 72%
    01:00 +20°C° 0 mm 1 m/s 753 mmHg 74%
    02:00 +20°C° 0 mm 1 m/s 753 mmHg 77%
    03:00 +19°C° 0 mm 1 m/s 753 mmHg 79%
    04:00 +20°C° 0 mm 1 m/s 753 mmHg 78%
    05:00 +20°C° 0 mm 1 m/s 753 mmHg 76%
    06:00 +21°C° 0 mm 1 m/s 753 mmHg 74%
    07:00 +23°C° 0 mm 1 m/s 753 mmHg 68%
    08:00 +24°C° 0 mm 1 m/s 753 mmHg 61%
    09:00 +24°C° 0 mm 0 m/s 753 mmHg 55%
    10:00 +27°C° 0 mm 1 m/s 753 mmHg 50%
    11:00 +28°C° 0 mm 1 m/s 753 mmHg 45%
    12:00 +29°C° 0 mm 2 m/s 753 mmHg 41%
    13:00 +29°C° 0 mm 2 m/s 753 mmHg 39%
    14:00 +29°C° 0 mm 2 m/s 752 mmHg 37%
    15:00 +30°C° 0 mm 2 m/s 752 mmHg 36%
    16:00 +29°C° 0 mm 2 m/s 752 mmHg 42%
    17:00 +27°C° 0 mm 2 m/s 752 mmHg 48%
    18:00 +26°C° 0 mm 2 m/s 752 mmHg 55%
    19:00 +25°C° 0 mm 3 m/s 752 mmHg 56%
    20:00 +24°C° 0 mm 3 m/s 752 mmHg 58%
    21:00 +22°C° 0 mm 3 m/s 752 mmHg 60%
    22:00 +22°C° 0 mm 3 m/s 752 mmHg 61%
    23:00 +21°C° 0 mm 3 m/s 752 mmHg 61%

    24 Julho, Quarta-feira

    Tempo Temperatura Precipitação Vento Pressão Humidade
    00:00 +21°C° 0 mm 3 m/s 752 mmHg 62%
    01:00 +21°C° 0 mm 3 m/s 752 mmHg 63%
    02:00 +20°C° 0 mm 3 m/s 752 mmHg 64%
    03:00 +20°C° 0 mm 2 m/s 752 mmHg 65%
    04:00 +20°C° 0 mm 3 m/s 752 mmHg 63%
    05:00 +21°C° 0 mm 3 m/s 752 mmHg 62%
    06:00 +21°C° 0 mm 3 m/s 752 mmHg 61%
    07:00 +24°C° 0 mm 3 m/s 752 mmHg 55%
    08:00 +26°C° 0 mm 3 m/s 752 mmHg 50%
    09:00 +28°C° 0 mm 4 m/s 752 mmHg 45%
    10:00 +29°C° 0 mm 4 m/s 752 mmHg 41%
    11:00 +32°C° 0 mm 4 m/s 752 mmHg 38%
    12:00 +33°C° 0 mm 4 m/s 752 mmHg 35%
    13:00 +33°C° 0 mm 4 m/s 752 mmHg 34%
    14:00 +33°C° 0 mm 4 m/s 751 mmHg 34%
    15:00 +33°C° 0 mm 3 m/s 751 mmHg 33%
    16:00 +33°C° 0 mm 4 m/s 751 mmHg 35%
    17:00 +32°C° 0 mm 4 m/s 751 mmHg 38%
    18:00 +32°C° 0 mm 4 m/s 751 mmHg 40%
    19:00 +29°C° 0 mm 5 m/s 751 mmHg 44%
    20:00 +28°C° 0 mm 6 m/s 750 mmHg 48%
    21:00 +27°C° 0 mm 7 m/s 750 mmHg 52%
    22:00 +26°C° 0 mm 7 m/s 750 mmHg 51%
    23:00 +26°C° 0 mm 7 m/s 750 mmHg 51%

    25 Julho, Quinta-feira

    Tempo Temperatura Precipitação Vento Pressão Humidade
    00:00 +24°C° 0 mm 7 m/s 750 mmHg 50%
    01:00 +24°C° 0 mm 6 m/s 750 mmHg 50%
    02:00 +23°C° 0 mm 5 m/s 750 mmHg 51%
    03:00 +23°C° 0 mm 5 m/s 751 mmHg 51%
    04:00 +23°C° 0 mm 4 m/s 751 mmHg 53%
    05:00 +23°C° 0 mm 4 m/s 751 mmHg 55%
    06:00 +24°C° 0 mm 3 m/s 751 mmHg 57%
    07:00 +24°C° 0 mm 3 m/s 751 mmHg 57%
    08:00 +24°C° 0 mm 2 m/s 751 mmHg 57%
    09:00 +25°C° 0 mm 2 m/s 751 mmHg 58%
    10:00 +26°C° 0 mm 2 m/s 751 mmHg 53%
    11:00 +27°C° 0 mm 2 m/s 751 mmHg 47%
    12:00 +29°C° 0 mm 2 m/s 751 mmHg 42%
    13:00 +29°C° 0 mm 2 m/s 751 mmHg 44%
    14:00 +29°C° 0 mm 3 m/s 751 mmHg 45%
    15:00 +29°C° 0 mm 4 m/s 751 mmHg 47%
    16:00 +27°C° 0.1 mm 4 m/s 751 mmHg 54%
    17:00 +25°C° 0.1 mm 5 m/s 751 mmHg 61%
    18:00 +23°C° 0.1 mm 6 m/s 751 mmHg 68%
    19:00 +22°C° 0.2 mm 5 m/s 751 mmHg 71%
    20:00 +22°C° 0.2 mm 5 m/s 750 mmHg 74%
    21:00 +21°C° 0.2 mm 4 m/s 750 mmHg 77%
    22:00 +21°C° 0.1 mm 5 m/s 750 mmHg 76%
    23:00 +22°C° 0.1 mm 5 m/s 750 mmHg 76%
    Mostrar mais